TimeEST,TemperatureF,Dew PointF,Humidity,Sea Level PressureIn,VisibilityMPH,Wind Direction,Wind SpeedMPH,Gust SpeedMPH,PrecipitationIn,Events,Conditions,WindDirDegrees,DateUTC
12:45 AM,21.2,14.0,74,29.96,3.0,West,13.8,-,0.00,Snow,Light Snow,260,2013-02-20 05:45:00
12:53 AM,21.9,14.0,72,30.01,3.0,West,17.3,27.6,0.00,Snow,Light Snow,270,2013-02-20 05:53:00
1:15 AM,21.2,12.2,68,29.96,9.0,WSW,20.7,34.5,0.00,,Overcast,240,2013-02-20 06:15:00
1:44 AM,21.2,12.2,68,29.98,2.5,West,23.0,34.5,0.00,Snow,Light Snow,280,2013-02-20 06:44:00
1:49 AM,19.4,14.0,80,29.98,0.8,West,18.4,34.5,0.00,Snow,Light Snow,280,2013-02-20 06:49:00
1:53 AM,19.9,15.1,81,30.03,0.8,West,20.7,34.5,0.00,Snow,Light Snow,280,2013-02-20 06:53:00
1:59 AM,19.4,14.0,80,29.98,2.0,West,17.3,29.9,0.00,Snow,Light Snow,270,2013-02-20 06:59:00
2:07 AM,19.4,12.2,74,29.98,7.0,West,15.0,26.5,0.00,Snow,Light Snow,280,2013-02-20 07:07:00
2:53 AM,19.0,9.0,65,30.04,10.0,West,19.6,31.1,0.00,,Overcast,260,2013-02-20 07:53:00
3:53 AM,19.0,10.9,71,30.05,7.0,West,16.1,25.3,0.00,Snow,Light Snow,260,2013-02-20 08:53:00
4:21 AM,19.4,10.4,68,29.99,10.0,West,10.4,23.0,0.00,,Overcast,270,2013-02-20 09:21:00
4:53 AM,19.0,10.0,68,30.06,10.0,West,19.6,32.2,0.00,,Overcast,260,2013-02-20 09:53:00
5:22 AM,19.4,10.4,68,30.02,4.0,West,12.7,23.0,0.00,Snow,Light Snow,270,2013-02-20 10:22:00
5:53 AM,18.0,9.0,68,30.09,8.0,West,13.8,29.9,0.00,Snow,Light Snow,280,2013-02-20 10:53:00
6:53 AM,18.0,9.0,68,30.11,6.0,West,18.4,31.1,0.00,Snow,Light Snow,270,2013-02-20 11:53:00
8:09 AM,17.6,6.8,63,30.06,10.0,West,21.9,29.9,N/A,,Overcast,260,2013-02-20 13:09:00
8:53 AM,18.0,9.0,68,30.14,8.0,West,12.7,23.0,N/A,,Overcast,260,2013-02-20 13:53:00
9:08 AM,17.6,8.6,68,30.08,2.0,West,19.6,28.8,0.00,Snow,Light Snow,260,2013-02-20 14:08:00
9:15 AM,17.6,10.4,73,30.08,1.5,West,17.3,27.6,0.00,Snow,Light Snow,270,2013-02-20 14:15:00
9:36 AM,17.6,10.4,73,30.08,2.0,West,19.6,26.5,0.00,Snow,Light Snow,260,2013-02-20 14:36:00
9:46 AM,17.6,10.4,73,30.08,5.0,West,16.1,-,0.00,Snow,Light Snow,260,2013-02-20 14:46:00
9:53 AM,18.0,10.0,71,30.14,5.0,WSW,16.1,21.9,0.00,Snow,Light Snow,250,2013-02-20 14:53:00
10:02 AM,17.6,10.4,73,30.09,1.8,WSW,15.0,21.9,0.00,Snow,Light Snow,250,2013-02-20 15:02:00
10:09 AM,17.6,12.2,79,30.09,0.5,West,12.7,20.7,0.00,Snow,Snow,260,2013-02-20 15:09:00
10:20 AM,17.6,12.2,79,30.09,1.0,West,17.3,23.0,0.00,Snow,Light Snow,260,2013-02-20 15:20:00
10:27 AM,19.4,10.4,68,30.09,4.0,West,16.1,26.5,0.00,Snow,Light Snow,260,2013-02-20 15:27:00
10:46 AM,19.4,8.6,63,30.09,10.0,West,17.3,35.7,0.00,,Overcast,260,2013-02-20 15:46:00
10:53 AM,19.0,8.1,62,30.16,10.0,West,17.3,24.2,0.00,,Overcast,260,2013-02-20 15:53:00
11:08 AM,19.4,10.4,68,30.09,5.0,West,15.0,23.0,0.00,Snow,Light Snow,260,2013-02-20 16:08:00
11:21 AM,19.4,8.6,63,30.10,2.5,West,18.4,28.8,0.00,Snow,Light Snow,260,2013-02-20 16:21:00
11:25 AM,19.4,8.6,63,30.10,6.0,West,19.6,28.8,0.00,Snow,Light Snow,260,2013-02-20 16:25:00
11:53 AM,19.0,7.0,59,30.17,10.0,West,12.7,20.7,0.00,,Overcast,270,2013-02-20 16:53:00
12:53 PM,19.0,10.0,68,30.17,2.0,West,15.0,24.2,0.00,Snow,Light Snow,260,2013-02-20 17:53:00
1:06 PM,19.4,10.4,68,30.11,4.0,West,17.3,23.0,0.00,Snow,Light Snow,260,2013-02-20 18:06:00
1:10 PM,19.4,10.4,68,30.11,2.5,West,16.1,23.0,0.00,Snow,Light Snow,270,2013-02-20 18:10:00
1:21 PM,21.2,10.4,63,30.11,7.0,West,15.0,24.2,0.00,Snow,Light Snow,270,2013-02-20 18:21:00
1:53 PM,19.9,7.0,57,30.17,9.0,WSW,24.2,29.9,0.00,,Overcast,250,2013-02-20 18:53:00
2:53 PM,19.9,9.0,62,30.18,10.0,West,16.1,21.9,0.00,,Overcast,270,2013-02-20 19:53:00
3:53 PM,19.9,8.1,60,30.21,10.0,West,18.4,26.5,0.00,,Overcast,260,2013-02-20 20:53:00
4:53 PM,19.9,10.0,65,30.23,10.0,West,13.8,21.9,0.00,,Overcast,270,2013-02-20 21:53:00
5:53 PM,19.9,10.9,68,30.25,10.0,West,15.0,20.7,N/A,,Overcast,270,2013-02-20 22:53:00
6:53 PM,19.9,10.0,65,30.25,10.0,West,10.4,-,N/A,,Overcast,260,2013-02-20 23:53:00
7:53 PM,19.9,10.0,65,30.25,10.0,West,6.9,-,N/A,,Overcast,260,2013-02-21 00:53:00
8:53 PM,19.9,10.9,68,30.26,9.0,West,10.4,-,0.00,,Overcast,260,2013-02-21 01:53:00
9:53 PM,19.9,10.9,68,30.27,8.0,West,15.0,20.7,0.00,Snow,Light Snow,260,2013-02-21 02:53:00
10:53 PM,19.9,12.0,71,30.25,9.0,West,9.2,-,0.00,,Overcast,260,2013-02-21 03:53:00
11:53 PM,19.9,12.0,71,30.24,10.0,West,10.4,-,0.00,,Overcast,260,2013-02-21 04:53:00